Weather in Krasnoslobodsk

Russia / Volgograd Oblast     48°42′24″N   44°33′47″E
temp.,
°C
wind,
m/s
gust,
m/s
humid.,
%
clouds,
%
prec.,
mm/h
press.,
hPa
HPBL,
m
31 july, sat
sat3100:00+26w11405 0.0 100928
03:00+25wsw234511 0.0 100963
06:00+25wsw36335 0.0 1010190
09:00+31sw35225 0.0 1010910
12:00+33ssw45208 0.0 10092808
15:00+34s441811 0.0 10092968
18:00+33s541914 0.0 10091907
21:00+30ssw36231 0.0 1010211
1 august, sun
sun100:00+28nw22240 0.0 101144
03:00+25ne23490 0.0 101184
06:00+25ne23530 0.0 1012103
09:00+30e23290 0.0 1013516
12:00+34s14183 0.0 10122980
15:00+35wsw24162 0.0 10103051
18:00+35nne121885 0.0 10101987
21:00+31e23245 0.0 1011132
2 august, mon
mon200:00+29e11244 0.0 101113
03:00+27s11270 0.0 101111
06:00+28e23325 0.0 101289
09:00+31ese132959 0.1 1012420
12:00+35s342240 0.0 10112552
15:00+36s66175 0.0 10102644
18:00+34s78161 0.0 10101159
21:00+31s35248 0.0 1010141
3 august, tue
tue300:00+30sse232590 0.0 101082
03:00+28s28275 0.0 1010187
06:00+28sse22255 0.0 101064
09:00+33s57186 0.0 1010573
12:00+36s671391 0.0 10092776
15:00+37s67135 0.0 10083341
18:00+35wsw372017 0.0 10071813
21:00+29nw71140100 0.1 1010385
4 august, wed
wed400:00+27nw354999 0.0 1010264
03:00+26nw33547 0.1 1011175
06:00+24n58644 0.3 1012261
09:00+27nnw4554100 0.5 1013664
12:00+28nnw444896 0.0 1014999
15:00+30n443711 0.0 10131884
18:00+30nnw55311 0.0 10131990
21:00+27n583599 0.0 1015440